Location: Centerville
(32.8776°N, 96.6203°W)
Time: 00:38:52
(UTC+00:00)

Lacrosse 5 - Pass Details

Date: 17 June 2021
Orbit: 715 x 724 km, 57.0° (Epoch: 28 July)

Event Time Altitude Azimuth Distance (km) Brightness Sun altitude
Rises 05:28:29 0° 298° (WNW) 3,122 5.7 -32.0°
Reaches altitude 10° 05:32:02 10° 273° (W) 2,199 4.5 -32.2°
Enters shadow 05:32:10 10° 272° (W) 2,174 4.5 -32.2°
